www.pogodaiklimat.ru

Погода и климат >> Архив погоды >> Мексика >> Chihuahua University


ПОГОДА в Chihuahua University

  • Прогноз погоды в Chihuahua University
  • Монитор погоды в Chihuahua University
  • Климат города

АРХИВ ПОГОДЫ в Chihuahua University

Время (UTC), дата Ветер
(напр.,м/с)
 
Видим.   Явления Облачность Т
(С)
Тd
(С)
f
(%)
Тe
(С)
Тes
(С)
Комфортность P
(гПа)
Po
(гПа)
Тmin
(С)
Tmax
(С)
R
(мм)
R24
(мм)
S
(см)
15 16.10 С 3 2000 м туман местами туман 10/10 300 м
[Sc]
+5.6 +3.2 85 +2 +2 1019.7 865.2
18 16.10 СВ 2 8000 м в посл. час туман {морось} 10/10 200 м
[St]
+7.0 +4.7 85 +5 +5 1020.5 865.7 0.0
21 16.10 СВ 3 9000 м дымка 10/10 750 м
[St]
+10.8 +4.8 66 +9 +9 1017.8 863.7
00 17.10 СВ 3 10 км 10/10 600 м
[St]
+10.8 +4.0 63 +9 +9 1016.8 863.5 +5.4 +12.6
03 17.10 С 2 2000 м 10/10 630 м
[St]
+9.0 +4.0 71 +7 +7 1019.0 865.8
06 17.10 С 2 2000 м 10/10 750 м
[St]
+9.4 +3.2 65 +8 +8 1019.4 866.4 +12.6
09 17.10 В 2 2000 м 10/10 660 м
[St]
+8.6 +3.1 68 +7 +7 1019.5 866.4
12 17.10 СВ 1 2000 м 5/5 570 м
[St]
+7.9 +3.8 75 +7 +7 1020.6 866.9 +7.7 +12.6
15 17.10 С 1 10 км 10/10 480 м
[St]
+8.2 +3.9 74 +8 +8 1022.8 868.6
18 17.10 СВ 2 8000 м дымка туман 10/10 500 м
[St]
+9.4 +5.3 76 +8 +8 1022.9 868.7 +7.7 +9.6
21 17.10 С 2 9000 м дымка 10/10 480 м
[St]
+10.2 +6.2 76 +9 +9 1021.0 867.2
00 18.10 С 3 8000 м слабая морось 10/10 300 м
[Frnb]
+10.0 +6.8 80 +8 +8 1020.3 866.9 0.2
03 18.10 СВ 2 2000 м {морось} 10/10 210 м
[Frnb]
+9.0 +7.2 88 +7 +7 1021.6 868.2 0.2
06 18.10 СВ 1 2000 м слабая морось 10/10 100 м
[St]
+8.8 +7.4 91 +8 +8 1022.2 868.7 0.6
09 18.10 С 1 2000 м в посл. час морось 10/10 120 м
[St]
+8.8 +7.7 93 +8 +8 1021.2 867.7 0.0
12 18.10 СВ 1 1000 м в посл. час туман 10/10 150 м
[St]
+8.7 +7.6 93 +8 +8 1021.1 867.4 +8.7 +11.0
15 18.10 СВ 1 8000 м в посл. час морось {туман} туман 10/10 180 м
[St]
+9.3 +7.7 90 +9 +9 1022.5 868.6 0.4
18 18.10 С 1 9000 м в посл. час туман {морось} 10/10 300 м
[St]
+12.2 +7.6 73 +12 +12 1021.6 868.0 0.4
21 18.10 В 2 10 км 8/8 750 м
[Sc]
+17.4 +11.3 67 +18 +20 1019.9 867.4
00 19.10 Ю 3 10 км 4/4 1000 м
[Sc]
+20.0 +11.5 58 +22 +22 комфорт 1014.3 864.0 +8.7 +21.5
03 19.10 ЮЗ 3 2000 м 3/3 500 м
[Sc]
+15.8 +11.6 76 +15 +15 1014.3 864.9
06 19.10 З 1 2000 м 9/9 330 м
[Sc]
+14.0 +11.1 83 +14 +14 1013.9 865.0 +8.7 +21.5
09 19.10 СЗ 1 2000 м 10/10 420 м
[Sc]
+15.2 +11.7 80 +16 +16 1013.5 864.6
12 19.10 С 1 2000 м 9/9 450 м
[Sc diur, vesp]
+14.7 +11.1 79 +15 +15 1014.0 864.4 +14.5 +21.5
15 19.10 С 1 8000 м дым туман 9/9 480 м
[St]
+15.4 +11.5 78 +16 +16 1015.8 865.7
18 19.10 В 1 9000 м дымка {туман} 10/10 630 м
[Sc]
+18.8 +13.6 72 +21 +21 комфорт 1015.2 865.7 +14.5 +21.4
21 19.10 ЮВ 3 10 км 9/6 1020 м
[Sc Ac lent]
+22.4 +14.3 60 +26 +27 жарко 1011.6 863.4
00 20.10 ЮВ 4 10 км 9/9 300 м
[Sc]
+20.8 +14.5 67 +24 +24 комфорт 1010.5 863.2 +14.5 +23.5
03 20.10 СВ 2 2000 м 9/9 360 м
[Sc]
+17.9 +15.0 83 +18 +18 1012.3 865.2
06 20.10 С 1 2000 м 10/10 420 м
[Sc]
+17.6 +14.2 80 +19 +19 1013.6 866.2 +14.5 +23.5
09 20.10 З 1 2000 м 6/6 180 м
[Sc]
+15.4 +13.9 91 +16 +16 1013.0 865.0
12 20.10 С 2 2000 м 9/9 330 м
[Sc diur, vesp]
+16.5 +13.9 85 +17 +17 1014.2 865.5 +15.4 +23.5
15 20.10 С 1 8000 м в посл. час морось {туман} туман 10/10 270 м
[St]
+16.6 +14.5 87 +17 +17 1016.3 867.0 0.0
18 20.10 СВ 3 8000 м в посл. час морось 10/10 100 м
[St]
+15.8 +14.3 91 +15 +15 1017.6 867.9 0.0
21 20.10 СВ 4 10 км 10/10 180 м
[St]
+15.5 +14.1 91 +14 +14 1016.3 866.8 0.0
00 21.10 С 3 8000 м в посл. час дождь {морось} 10/10 100 м
[St]
+15.4 +14.2 93 +15 +15 1016.7 867.0 2
03 21.10 СВ 2 2000 м слабый дождь туман 10/10 30 м
[Frnb]
+14.6 +14.3 98 +14 +14 1018.2 868.1 4
06 21.10 В 2 2000 м в посл. час дождь 10/10 100 м
[Frnb]
+13.6 +12.6 94 +13 +13 1019.0 868.6 5
09 21.10 СВ 2 2000 м в посл. час морось 10/10 120 м
[Frnb]
+12.2 +11.2 94 +11 +11 1018.4 867.7 0.0
12 21.10 СВ 2 1000 м слабая морось {туман} 10/10 50 м
[St]
+10.8 +10.3 97 +9 +9 1018.9 867.6 1
15 21.10 СВ 2 6000 м слабая морось {туман} 10/10 30 м
[St]
+11.4 +11.1 98 +10 +10 1020.8 868.7 0.3
18 21.10 СВ 2 6000 м в посл. час морось 10/10 200 м
[Frnb]
+13.4 +11.1 86 +13 +13 1020.1 868.0 0.3
21 21.10 С 2 6000 м туман туман 10/10 240 м
[Frnb]
+13.8 +11.9 88 +13 +13 1017.7 866.1
00 22.10 СВ 2 6000 м туман 10/10 200 м
[Frnb]
+13.8 +11.9 88 +13 +13 1010.6 865.0 0.0
03 22.10 СВ 1 2000 м в посл. час морось 10/10 150 м
[St]
+13.5 +12.4 93 +14 +14 1016.4 865.6 0.0
06 22.10 С 1 2000 м 10/10 150 м
[St]
+13.4 +11.8 90 +14 +14 1016.7 865.7 +10.8 +14.3 0.0
09 22.10 штиль 0 2000 м 10/10 150 м
[St]
+13.5 +12.5 94 +13 +13 1014.7 864.2
12 22.10 штиль 0 1000 м туман 10/10 120 м
[St]
+14.0 +13.1 94 +14 +14 1013.7 863.3 +13.2 +14.3
15 22.10 СВ 1 8000 м туман {морось} 10/10 100 м
[St]
+14.3 +13.4 94 +15 +15 1015.2 864.7 0.0
18 22.10 С 8 6000 м туман {морось} 10/10 300 м
[St]
+17.2 +14.0 81 +16 +16 1014.4 864.4 0.0
21 22.10 Ю 2 9000 м туман на расстоянии 10/10 450 м
[St]
+18.6 +15.0 80 +20 +20 1011.6 862.5
00 23.10 ЮВ 4 9000 м туман местами 8/5 300 м
[Sc As trans]
+17.7 +14.2 80 +17 +18 1010.2 861.8 +13.2 +19.0
03 23.10 Ю 2 2000 м 9/6 210 м
[Sc As op]
+16.3 +14.6 90 +16 +16 1011.0 862.8
06 23.10 Ю 2 2000 м 10/6 <50 м
[Sc As op]
+16.0 +15.1 94 +16 +16 1011.5 863.2 +19.0
09 23.10 С 1 2000 м туман местами 10/8
[Sc As op]
+15.6 +15.0 96 +16 +16 1010.4 861.9
12 23.10 Ю 2 2000 м дымка {туман} 10/10 180 м
[St]
+15.6 +14.2 91 +15 +15 1011.0 862.2 +15.5 +19.0

 

Местоположение метеостанции Chihuahua University (Мексика): широта 28.63 долгота -106.00 высота над уровнем моря 1433 м.

В архиве по умолчанию представлена погода в Chihuahua University за последнюю неделю. Архивные данные за месяц целиком и за предыдущие месяцы, начиная с января 2011 года, Вы можете получить, выбрав интересующий диапазон дат из раскрывающегося списка и нажав кнопку "Ввод!".


*Определитесь, кто Вы:
робот инопланетянин человек

Внимание! Время в таблицах - всемирное. Для получения местного времени необходимо прибавить поправку, которая в Chihuahua University равна -6 ч.

Смотрите также архив погоды в соседних городах и на ближайших метеорологических станциях:

Погода в Chihuahua (Мексика) (11 км)
Погода в Temosachic (Мексика) (179 км)
Погода в Hidalgo del Parral (Мексика) (193 км)
Погода в Nueva Casas Grandes (Мексика) (267 км)
Погода в Choix (Мексика) (303 км)
Погода в Tepehuanes (Мексика) (367 км)
Погода в Ciudad Obregon (Мексика) (401 км)
Погода в Pilares de Nacoz (Мексика) (405 км)
Погода в Torreon (Мексика) (430 км)
Погода в Culiacan (Мексика) (448 км)

Пояснения к столбцам:

Ветер - указаны скорость ветра в м/с - средняя за 10 мин, порывы в срок и между сроками (в фигурных скобках) и направление, откуда дует ветер: С - северный, СВ - северо-восточный, В - восточный, ЮВ - юго-восточный, Ю - южный, ЮЗ - юго-западный, З - западный, СЗ - северо-западный.
Видимость - горизонтальная дальность видимости в метрах или километрах. При видимости от 1 до 10 км при отсутствии осадков обычно наблюдается дымка, при ухудшении видимости до 1 км и менее - туман. В сухую погоду видимость может ухудшаться дымом, пылью или мглою.
Явления - указаны атмосферные явления, наблюдавшиеся в срок или в последний час перед сроком; фигурными скобками обозначены явления, наблюдавшиеся между сроками (за 1-3 часа до срока); квадратными скобками обозначены град или гололедные отложения с указанием их диаметра в мм.
Облачность - указаны через наклонную черту общая и нижняя облачность в баллах и высота нижней границы облаков в метрах; квадратными скобками обозначены формы облаков: Ci - перистые, Cs - перисто-слоистые, Cc - перисто-кучевые, Ac - высококучевые, As - высокослоистые, Sc - слоисто-кучевые, Ns - слоисто-дождевые, Cu - кучевые, Cb - кучево-дождевые. Подробнее классификацию облаков см. в Атласе облаков (PDF).
T - Температура воздуха - температура, измеренная на высоте 2 м над землей.
Td - Температура точки росы - температура, при понижении до которой содержащийся в воздухе водяной пар достигнет насыщения.
f - Относительная влажность воздуха - влажноcть воздуха, измеренная на высоте 2 м над землей.
Te - Эффективная температура - температура, которую ощущает одетый по сезону человек в тени. Характеристика душности погоды. При расчете учитывается влияние влажности воздуха и скорости ветра на теплоощущения человека.
Tes - Эффективная температура на солнце - температура, которую ощущает человек, с поправкой на солнечный нагрев. Характеристика знойности погоды. Зависит от высоты солнца над горизонтом, облачности и скорости ветра. Ночью, в пасмурную погоду, а также при ветре 12 м/с и более поправка равна нулю.
P - Атмосферное давление - приведенное к уровню моря атмосферное давление.
Po - Атмосферное давление - измеренное на уровне метеостанции атмосферное давление.
Tmin - Минимальная температура - минимум температуры воздуха на высоте 2 м над землей.
Tmax - Максимальная температура - максимум температуры воздуха на высоте 2 м над землей.
R - Количество осадков - Количество выпавших осадков за период времени, мм. При наведении курсора мыши на число - период времени, за который выпало указанное количество осадков.
R24 - Количество осадков - Количество выпавших осадков за 24 часа, мм.
S - Снежный покров - Высота снежного покрова, см. При наведении курсора мыши на число - состояние снежного покрова и степень покрытия местности в баллах.